Bridgeport, CT

4:18 AM EDT on May 25, 2017 (GMT -0400)
Sikorsky Memorial

Weather History for KBDR - January, 2013

Change the Weather History Date:

Tuesday, January 8, 2013

  Actual Average Record
Temperature  
Mean Temperature 35 °F 30 °F  
Max Temperature 46 °F 37 °F 57 °F (1949)
Min Temperature 24 °F 23 °F 1 °F (1968)
Degree Days  
Heating Degree Days 30 35  
Month to date heating degree days 261 276  
Since 1 July heating degree days 1957 2169  
Cooling Degree Days 0 0  
Month to date cooling degree days 0 0  
Year to date cooling degree days 0 0  
Moisture  
Dew Point 30 °F    
Average Humidity 76    
Maximum Humidity 92    
Minimum Humidity 60    
Precipitation  
Precipitation 0.00 in 0.10 in 1.36 in (2007)
Month to date precipitation T 0.82  
Year to date precipitation T 0.82  
Snow  
Snow 0.00 in 0.20 in 8.00 in (1996)
Month to date snowfall T 2.0  
Since 1 July snowfall 16.2 7.8  
Snow Depth 0.00 in    
Sea Level Pressure  
Sea Level Pressure 30.37 in    
Wind  
Wind Speed 5 mph (WSW)    
Max Wind Speed 15 mph    
Max Gust Speed 21 mph    
Visibility 8 miles    
Events      
T = Trace of Precipitation, MM = Missing Value Source: NWS Daily Summary

Daily Weather History Graph

Daily Weather History Graph

Search for Another Location

Airport or City:

Trip Planner

Search our weather history database for the weather conditions in past years. The results will help you decide how hot, cold, wet, or windy it might be!

Date:

Astronomy

Jan. 08, 2013 Rise Set
Actual Time 7:17 AM EST 4:41 PM EST
Civil Twilight 6:46 AM EST 5:12 PM EST
Nautical Twilight 6:12 AM EST 5:46 PM EST
Astronomical Twilight 5:39 AM EST 6:19 PM EST
Moon 3:47 AM EST (1/8) 1:41 PM EST (1/8)
Length of Visible Light 10h 25m
Length of Day
9h 23m
Waning Crescent, 14% of the Moon is Illuminated
Jan 8
Waning Crescent
Jan 11
New
Jan 18
First Quarter
Jan 26
Full
Feb 3
Last Quarter

Hourly Weather History & Observations

Time (EST) Temp. Windchill Dew Point Humidity Pressure Visibility Wind Dir Wind Speed Gust Speed Precip Events Conditions
12:52 AM 26.1 °F 20.5 °F 21.0 °F 81% 30.38 in 8.0 mi NNW 4.6 mph - N/A   Clear
1:52 AM 27.0 °F 23.0 °F 21.9 °F 81% 30.38 in 9.0 mi NW 3.5 mph - N/A   Clear
2:52 AM 27.0 °F - 21.9 °F 81% 30.37 in 9.0 mi Calm Calm - N/A   Clear
3:52 AM 26.1 °F - 21.9 °F 84% 30.36 in 9.0 mi Calm Calm - N/A   Clear
4:52 AM 26.1 °F - 21.9 °F 84% 30.36 in 9.0 mi Calm Calm - N/A   Clear
5:52 AM 30.9 °F 27.5 °F 27.0 °F 85% 30.38 in 10.0 mi WSW 3.5 mph - N/A   Clear
6:52 AM 30.2 °F - 26.6 °F 86% 30.39 in 10.0 mi Calm Calm - N/A   Clear
7:52 AM 33.8 °F - 28.4 °F 81% 30.42 in 8.0 mi Calm Calm - N/A   Clear
8:52 AM 36.0 °F 32.1 °F 28.9 °F 76% 30.43 in 7.0 mi West 4.6 mph - N/A   Clear
9:52 AM 39.0 °F 34.8 °F 28.9 °F 67% 30.43 in 6.0 mi WSW 5.8 mph - N/A   Haze
10:52 AM 41.0 °F 35.8 °F 32.0 °F 70% 30.41 in 8.0 mi SW 8.1 mph - N/A   Clear
11:52 AM 44.1 °F 38.1 °F 33.1 °F 65% 30.37 in 8.0 mi SW 11.5 mph 17.3 mph N/A   Clear
12:52 PM 46.0 °F 40.6 °F 33.1 °F 61% 30.34 in 9.0 mi WSW 11.5 mph - N/A   Clear
1:52 PM 46.0 °F 40.2 °F 33.1 °F 61% 30.33 in 10.0 mi SW 12.7 mph - N/A   Clear
2:52 PM 46.0 °F 40.6 °F 34.0 °F 63% 30.34 in 9.0 mi SW 11.5 mph - N/A   Clear
3:52 PM 45.0 °F 40.1 °F 34.0 °F 65% 30.33 in 9.0 mi SW 9.2 mph - N/A   Clear
4:52 PM 43.0 °F 39.5 °F 34.0 °F 71% 30.34 in 9.0 mi WSW 5.8 mph - N/A   Clear
5:52 PM 42.1 °F - 36.0 °F 79% 30.35 in 8.0 mi Calm Calm - N/A   Clear
6:52 PM 42.1 °F 38.4 °F 36.0 °F 79% 30.36 in 9.0 mi SW 5.8 mph - N/A   Clear
7:52 PM 39.0 °F 36.8 °F 36.0 °F 89% 30.38 in 7.0 mi SW 3.5 mph - N/A   Clear
8:52 PM 41.0 °F 37.1 °F 37.0 °F 86% 30.37 in 8.0 mi SW 5.8 mph - N/A   Clear
9:52 PM 39.9 °F 36.7 °F 37.0 °F 89% 30.38 in 7.0 mi SW 4.6 mph - N/A   Clear
10:52 PM 37.9 °F - 35.1 °F 89% 30.38 in 5.0 mi Calm Calm - N/A   Clear
11:52 PM 32.0 °F - 30.0 °F 92% 30.38 in 5.0 mi Calm Calm - N/A   Clear